Regional Weather Roundup
Issued by NWS

Home | Current Version | Previous Version | Text Only | Print | Product List | Glossary On
Versions: 1 2 3 4 5 6 7 8 9 10 11 12 13 14 15 16 17 18 19 20 21 22 23 24 25 26 27 28 29 30 31 32 33 34 35 36 37 38 39 40 41 42 43 44 45 46 47 48 49 50
000
ASUS43 KDTX 190901
RWRMI
MICHIGAN HOURLY REGIONAL WEATHER ROUNDUP
NATIONAL WEATHER SERVICE DETROIT/PONTIAC MI
400 AM EST MON FEB 19 2018

NOTE: "FAIR" INDICATES FEW OR NO CLOUDS BELOW 12,000 FEET WITH NO
SIGNIFICANT WEATHER AND/OR OBSTRUCTION TO VISIBILITY.

MIZ047>049-052>055-059>063-066>070-074>076-081>083-191000-
SOUTHEAST LOWER MICHIGAN

CITY           SKY/WX    TMP DP  RH WIND       PRES   REMARKS
ADRIAN         CLOUDY    31  28  89 CALM      30.00S
ANN ARBOR      CLOUDY    33  29  85 E3        30.00S
BAD AXE        FAIR      31  26  83 S15       30.00S WCI  20
CARO           MOCLDY    32  28  83 S7        29.98S WCI  26
DETROIT CITY   MOCLDY    32  27  81 SE5       30.02F WCI  27
DETROIT        CLOUDY    33  28  81 SE3       30.01F
FLINT          CLOUDY    36  28  73 S10       29.98S WCI  28
GROSSE ILE     FAIR      33  28  83 SE8       30.00F WCI  26
HILLSDALE      CLOUDY    34  30  86 S6        29.97R WCI  29
HOWELL         CLOUDY    34  30  85 S8        29.98S WCI  28

CITY           SKY/WX    TMP DP  RH WIND       PRES   REMARKS
JACKSON        CLOUDY    37  31  78 SE9       29.97R WCI  30
LAMBERTVILLE   MOCLDY    34  29  82 SE6       29.98F WCI  29
LANSING        CLOUDY    37  30  75 S12       29.95F WCI  29
LAPEER         CLOUDY    32  28  82 S3        30.01R
MASON          CLOUDY    36  29  75 S8        29.96F WCI  29
MT. CLEMENS    MOCLDY    29  29 100 SE9       30.00F WCI  20
PONTIAC        MOCLDY    33  28  81 S7        30.00R WCI  27
PORT HOPE        N/A     32  25  75 S8        29.98F WCI  25
PORT HURON     FAIR      30  25  80 S6        30.03F WCI  24
TRI CITIES     FAIR      33  27  78 S8        29.96F WCI  26
MIDLAND        FAIR      33  28  83 SE3       29.95S
TROY           MOCLDY    34  29  83 CALM      30.03S
SAGINAW HB     MOCLDY    32  30  93 S8        29.97F WCI  25
$$
MIZ043>046-050>051-056>058-064>065-071>073-077>080-191000-
SOUTHWEST LOWER MICHIGAN

CITY           SKY/WX    TMP DP  RH WIND       PRES   REMARKS
BATTLE CREEK   CLOUDY    37  31  78 S10       29.93F WCI  30
BENTON HARBOR  LGT RAIN  40  33  76 S8        29.90S WCI  34
BIG RAPIDS     CLOUDY    32  27  83 CALM      29.90F
COLDWATER      MIX PCPN  36  32  85 SE8       29.96S WCI  29
FREMONT        CLOUDY    35  26  68 SE3       29.89S
HOLLAND        CLOUDY    39  31  72 S6        29.90F WCI  35
GRAND RAPIDS   CLOUDY    38  30  73 S10       29.91F WCI  31
IONIA          MOCLDY    34  30  85 SE7       29.91F WCI  28
KALAMAZOO      CLOUDY    39  31  72 S8        29.92F WCI  33
LUDINGTON      CLOUDY    37  31  78 SE6       29.87S WCI  32
MARSHALL       CLOUDY    36  31  80 S9        29.94F WCI  29
MOUNT PLEASANT MOCLDY    33  28  83 CALM      29.93S
MUSKEGON       CLOUDY    40  30  67 S9        29.90S WCI  34
SOUTH HAVEN    LGT RAIN  40  33  76 S7        29.89S
$$
MIZ016>042-191000-
NORTHERN LOWER MICHIGAN

CITY           SKY/WX    TMP DP  RH WIND       PRES   REMARKS
ALPENA         FAIR      29  26  89 S8        29.95F WCI  21
BEAVER ISLAND  CLOUDY    33  25  74 CALM      29.89S
BELLAIRE       FAIR      32  29  88 S3        29.91R
CADILLAC       CLOUDY    33  29  86 S7        29.88S WCI  26
CHARLEVOIX     MOCLDY    33  26  76 SE3       29.92S
FRANKFORT      FAIR      36  29  74 SE5       29.88S WCI  32
GAYLORD        FAIR      29  27  92 S12       29.88F WCI  19
GRAYLING       MOCLDY    29  27  92 SE5       29.89F WCI  24
HARBOR SPRINGS MOCLDY    33  26  75 CALM      29.90S
HOUGHTON LAKE  FAIR      30  26  85 SE3       29.91F
MANISTEE       MOCLDY    32  27  81 E7        29.88S WCI  26
OSCODA         FAIR      29  25  85 S6        29.97F WCI  23
PELLSTON       MOCLDY    33  25  72 E5        29.90F WCI  29
ROGERS CITY    CLOUDY    32  27  80 S7        29.93F WCI  26
TRAVERSE CITY  FAIR      37  28  70 CALM      29.87F
$$
MIZ007>008-015-191000-
EASTERN UPPER MICHIGAN

CITY           SKY/WX    TMP DP  RH WIND       PRES   REMARKS
KINROSS        CLOUDY    32  22  66 S6        29.90S WCI  26
MACKINAC ISLAN CLOUDY    33  22  65 S5        29.90F WCI  28
NEWBERRY       CLOUDY    32  29  89 S6        29.87S WCI  27
S. S. MARIE    CLOUDY    33  25  72 SE5       29.90S WCI  29
MUNISING         N/A     34  31  88 S8        29.83F WCI  27
$$
MIZ004>006-011>014-085-191000-
CENTRAL UPPER MICHIGAN

CITY           SKY/WX    TMP DP  RH WIND       PRES   REMARKS
MANISTIQUE     CLOUDY    33  32  94 S5        29.86F WCI  29
ESCANABA       CLOUDY    30  28  92 SE3       29.83F FOG
MENOMINEE      FAIR      33  29  85 SE3       29.83F
$$
MIZ001>003-009>011-084-191000-
WESTERN UPPER MICHIGAN

CITY           SKY/WX    TMP DP  RH WIND       PRES   REMARKS
IRON MOUNTAIN  FAIR      27  23  85 CALM      29.78F
HOUGHTON       CLOUDY    20  15  81 NE13      29.84S WCI   7
COPPER HARBOR    N/A     21  17  84 NE16      29.88F WCI   7
IRONWOOD       CLOUDY    18  17  96 NE9       29.89R WCI   7
$$

ABBREVIATIONS USED IN REMARKS
   TC - TEMPERATURE IN CELSIUS
  WCI - WIND CHILL INDEX
   HX - HEAT INDEX
  VSB - VISIBILITY




USA.gov is the U.S. government's official web portal to all federal, state and local government web resources and services.